| time (UTC) | temp C | wind direction | speed KPH | gust KPH | rain 1hr cm | rain 24hr cm | rain mn cm | humidity % | barometer mb |
| 20260504190522 | 17 | 0 | 0.0 | 0.0 | 0.00 | 0.00 | 0.00 | 51 | 1015.0 |
| 20260504185410 | 17 | 0 | 0.0 | 0.0 | 0.00 | 0.00 | 0.00 | 50 | 1014.9 |
| 20260504184510 | 17 | 0 | 0.0 | 0.0 | 0.00 | 0.00 | 0.00 | 48 | 1014.9 |
| 20260504183819 | 18 | 0 | 0.0 | 0.0 | 0.00 | 0.00 | 0.00 | 47 | 1014.9 |
| 20260504182710 | 18 | 167 | 0.0 | 4.8 | 0.00 | 0.00 | 0.00 | 45 | 1014.8 |
| 20260504182024 | 18 | 144 | 0.0 | 4.8 | 0.00 | 0.00 | 0.00 | 44 | 1014.8 |
| 20260504180910 | 19 | 0 | 0.0 | 0.0 | 0.00 | 0.00 | 0.00 | 43 | 1014.7 |
| 20260504180224 | 19 | 149 | 0.0 | 6.4 | 0.00 | 0.00 | 0.00 | 43 | 1014.6 |
| 20260504175321 | 20 | 144 | 0.0 | 9.7 | 0.00 | 0.00 | 0.00 | 43 | 1014.6 |
| 20260504174210 | 20 | 126 | 0.0 | 8.0 | 0.00 | 0.00 | 0.00 | 43 | 1014.5 |
| 20260504173521 | 20 | 155 | 0.0 | 8.0 | 0.00 | 0.00 | 0.00 | 43 | 1014.5 |
| 20260504172623 | 20 | 166 | 1.6 | 12.9 | 0.00 | 0.00 | 0.00 | 42 | 1014.4 |
| 20260504171510 | 20 | 163 | 1.6 | 11.3 | 0.00 | 0.00 | 0.00 | 42 | 1014.5 |
| 20260504170823 | 20 | 177 | 4.8 | 11.3 | 0.00 | 0.00 | 0.00 | 42 | 1014.5 |
| 20260504160310 | 21 | 145 | 3.2 | 12.9 | 0.00 | 0.00 | 0.00 | 41 | 1014.6 |
| 20260504150910 | 23 | 175 | 3.2 | 12.9 | 0.00 | 0.00 | 0.00 | 42 | 1014.7 |
| 20260504140610 | 25 | 143 | 0.0 | 6.4 | 0.00 | 0.00 | 0.00 | 26 | 1014.9 |
| 20260504130521 | 24 | 97 | 1.6 | 12.9 | 0.00 | 0.00 | 0.00 | 33 | 1015.4 |
| 20260504100523 | 23 | 13 | 4.8 | 12.9 | 0.00 | 0.00 | 0.00 | 31 | 1016.7 |
| 20260504081510 | 21 | 31 | 3.2 | 8.0 | 0.00 | 0.00 | 0.00 | 36 | 1017.1 |
| 20260504080824 | 20 | 307 | 3.2 | 6.4 | 0.00 | 0.00 | 0.00 | 37 | 1017.2 |
| 20260504050610 | 12 | 15 | 0.0 | 3.2 | 0.00 | 0.00 | 0.00 | 68 | 1016.4 |
| 20260504045710 | 11 | 12 | 1.6 | 6.4 | 0.00 | 0.00 | 0.00 | 68 | 1016.3 |
| 20260504045020 | 11 | 9 | 1.6 | 6.4 | 0.00 | 0.00 | 0.00 | 69 | 1016.1 |
| 20260504044123 | 11 | 16 | 1.6 | 4.8 | 0.00 | 0.00 | 0.00 | 69 | 1016.1 |
| 20260504043010 | 11 | 11 | 1.6 | 6.4 | 0.00 | 0.00 | 0.00 | 70 | 1016.0 |
| 20260504042322 | 11 | 12 | 1.6 | 6.4 | 0.00 | 0.00 | 0.00 | 69 | 1016.0 |
| 20260504041210 | 11 | 359 | 1.6 | 6.4 | 0.00 | 0.00 | 0.00 | 69 | 1016.0 |
| 20260504040522 | 11 | 12 | 0.0 | 3.2 | 0.00 | 0.00 | 0.00 | 69 | 1016.0 |
| 20260504035624 | 11 | 12 | 0.0 | 4.8 | 0.00 | 0.00 | 0.00 | 69 | 1016.0 |
| 20260504034722 | 11 | 347 | 0.0 | 4.8 | 0.00 | 0.00 | 0.00 | 69 | 1016.0 |
| 20260504033824 | 11 | 350 | 0.0 | 4.8 | 0.00 | 0.00 | 0.00 | 69 | 1016.0 |
| 20260504032710 | 11 | 360 | 0.0 | 3.2 | 0.00 | 0.00 | 0.00 | 68 | 1016.0 |
| 20260504031810 | 11 | 10 | 0.0 | 3.2 | 0.00 | 0.00 | 0.00 | 68 | 1016.0 |
| 20260504031121 | 11 | 3 | 0.0 | 4.8 | 0.00 | 0.00 | 0.00 | 68 | 1016.0 |
| 20260504030010 | 11 | 14 | 0.0 | 4.8 | 0.00 | 0.00 | 0.00 | 68 | 1015.9 |
| 20260504025321 | 11 | 30 | 0.0 | 4.8 | 0.00 | 0.00 | 0.00 | 68 | 1016.0 |
| 20260504024210 | 11 | 0 | 0.0 | 0.0 | 0.00 | 0.00 | 0.00 | 67 | 1016.1 |
| 20260504023310 | 12 | 0 | 0.0 | 0.0 | 0.00 | 0.00 | 0.00 | 67 | 1016.2 |
| 20260504022623 | 12 | 8 | 0.0 | 4.8 | 0.00 | 0.00 | 0.00 | 67 | 1016.0 |
| 20260504021510 | 12 | 7 | 0.0 | 4.8 | 0.00 | 0.00 | 0.00 | 66 | 1016.1 |
| 20260504020610 | 12 | 0 | 0.0 | 0.0 | 0.00 | 0.00 | 0.00 | 66 | 1016.0 |
| 20260504015710 | 12 | 345 | 0.0 | 4.8 | 0.00 | 0.00 | 0.00 | 66 | 1016.0 |
| 20260504015022 | 12 | 2 | 0.0 | 4.8 | 0.00 | 0.00 | 0.00 | 66 | 1016.0 |
| 20260504013910 | 12 | 325 | 0.0 | 3.2 | 0.00 | 0.00 | 0.00 | 66 | 1015.9 |
| 20260504013010 | 12 | 360 | 0.0 | 3.2 | 0.00 | 0.00 | 0.00 | 66 | 1016.0 |
| 20260504012324 | 12 | 360 | 0.0 | 1.6 | 0.00 | 0.00 | 0.00 | 66 | 1016.0 |
| 20260504011421 | 12 | 0 | 0.0 | 0.0 | 0.00 | 0.00 | 0.00 | 66 | 1016.1 |
| 20260504010310 | 12 | 0 | 0.0 | 0.0 | 0.00 | 0.00 | 0.00 | 66 | 1016.0 |
| 20260504005621 | 12 | 0 | 0.0 | 0.0 | 0.00 | 0.00 | 0.00 | 66 | 1016.1 |
| 20260504004723 | 12 | 0 | 0.0 | 0.0 | 0.00 | 0.00 | 0.00 | 66 | 1016.1 |
| 20260504003610 | 12 | 90 | 0.0 | 3.2 | 0.00 | 0.00 | 0.00 | 66 | 1016.1 |
| 20260504002923 | 12 | 90 | 0.0 | 1.6 | 0.00 | 0.00 | 0.00 | 66 | 1016.2 |
| 20260504002020 | 12 | 0 | 0.0 | 0.0 | 0.00 | 0.00 | 0.00 | 66 | 1016.3 |
| 20260504001123 | 13 | 0 | 0.0 | 0.0 | 0.00 | 0.00 | 0.00 | 66 | 1016.4 |
| 20260504000010 | 12 | 0 | 0.0 | 0.0 | 0.00 | 0.00 | 0.00 | 68 | 1016.3 |
| 20260503235110 | 12 | 90 | 0.0 | 1.6 | 0.00 | 0.00 | 0.00 | 68 | 1016.3 |
| 20260503234210 | 12 | 0 | 0.0 | 0.0 | 0.00 | 0.00 | 0.00 | 67 | 1016.4 |
| 20260503233522 | 12 | 0 | 0.0 | 0.0 | 0.00 | 0.00 | 0.00 | 67 | 1016.4 |
| 20260503232410 | 12 | 0 | 0.0 | 0.0 | 0.00 | 0.00 | 0.00 | 66 | 1016.5 |
| 20260503231722 | 12 | 0 | 0.0 | 0.0 | 0.00 | 0.00 | 0.00 | 66 | 1016.5 |
| 20260503230819 | 13 | 0 | 0.0 | 0.0 | 0.00 | 0.00 | 0.00 | 66 | 1016.6 |
| 20260503225710 | 13 | 0 | 0.0 | 0.0 | 0.00 | 0.00 | 0.00 | 65 | 1016.7 |
| 20260503224810 | 13 | 0 | 0.0 | 0.0 | 0.00 | 0.00 | 0.00 | 64 | 1016.6 |
| 20260503224121 | 13 | 0 | 0.0 | 0.0 | 0.00 | 0.00 | 0.00 | 65 | 1016.6 |
| 20260503223010 | 12 | 0 | 0.0 | 0.0 | 0.00 | 0.00 | 0.00 | 64 | 1016.6 |
| 20260503222110 | 13 | 0 | 0.0 | 0.0 | 0.00 | 0.00 | 0.00 | 63 | 1016.6 |
| 20260503221210 | 13 | 0 | 0.0 | 0.0 | 0.00 | 0.00 | 0.00 | 62 | 1016.6 |
| 20260503220521 | 13 | 0 | 0.0 | 0.0 | 0.00 | 0.00 | 0.00 | 61 | 1016.5 |
| 20260503215623 | 13 | 0 | 0.0 | 0.0 | 0.00 | 0.00 | 0.00 | 60 | 1016.4 |
| 20260503214510 | 13 | 0 | 0.0 | 0.0 | 0.00 | 0.00 | 0.00 | 59 | 1016.5 |
| 20260503213610 | 14 | 0 | 0.0 | 0.0 | 0.00 | 0.00 | 0.00 | 58 | 1016.5 |
| 20260503212920 | 14 | 0 | 0.0 | 0.0 | 0.00 | 0.00 | 0.00 | 58 | 1016.4 |
| 20260503211810 | 14 | 0 | 0.0 | 0.0 | 0.00 | 0.00 | 0.00 | 57 | 1016.4 |
| 20260503211120 | 14 | 0 | 0.0 | 0.0 | 0.00 | 0.00 | 0.00 | 56 | 1016.4 |
| 20260503210222 | 14 | 0 | 0.0 | 0.0 | 0.00 | 0.00 | 0.00 | 56 | 1016.3 |
| 20260503205319 | 14 | 0 | 0.0 | 0.0 | 0.00 | 0.00 | 0.00 | 55 | 1016.3 |
| 20260503204422 | 14 | 0 | 0.0 | 0.0 | 0.00 | 0.00 | 0.00 | 54 | 1016.3 |
| 20260503203310 | 15 | 0 | 0.0 | 0.0 | 0.00 | 0.00 | 0.00 | 54 | 1016.4 |
| 20260503202410 | 15 | 0 | 0.0 | 0.0 | 0.00 | 0.00 | 0.00 | 53 | 1016.3 |
| 20260503201724 | 15 | 0 | 0.0 | 0.0 | 0.00 | 0.00 | 0.00 | 52 | 1016.3 |
| 20260503200610 | 15 | 0 | 0.0 | 0.0 | 0.00 | 0.00 | 0.00 | 51 | 1016.4 |
| 20260503195710 | 15 | 45 | 0.0 | 1.6 | 0.00 | 0.00 | 0.00 | 50 | 1016.2 |
| 20260503194810 | 16 | 0 | 0.0 | 0.0 | 0.00 | 0.00 | 0.00 | 50 | 1016.5 |
| 20260503193910 | 16 | 0 | 0.0 | 0.0 | 0.00 | 0.00 | 0.00 | 50 | 1016.4 |
| 20260503193010 | 16 | 339 | 0.0 | 3.2 | 0.00 | 0.00 | 0.00 | 50 | 1016.3 |
| 20260503192323 | 16 | 347 | 0.0 | 3.2 | 0.00 | 0.00 | 0.00 | 50 | 1016.3 |
| 20260503191420 | 16 | 10 | 0.0 | 4.8 | 0.00 | 0.00 | 0.00 | 49 | 1016.1 |